[[{"header":{"parameterUnit":"m.s-1","parameterCategory":1,"la1":30.2991,"la2":30.254,"lo1":-89.0895,"lo2":-89.0444,"dy":0.0017,"dx":0.0017,"nx":28,"ny":28,"refTime":"2023-08-28T21:00:00:Z","depth":0,"parameterNumber":2,"parameterNumberName":"U-component_of_WINDS"},"data":[0,0,0,0,0,0,0,0,0,0,0,0,0,0,0,0,0,0,0,0,0,0,0,0,0,0,0,0,0,0,0,0,0,0,0,0,0,0,0,0,0,0,0,0,0,0,0,0,0,0,0,0,0,0,0,0,0,0,-4.0255,-4.0256,0,-4.0321,-4.0322,-4.0323,-4.0161,-4.0156,-4.0151,-4.0146,-4.0213,-4.0219,-4.0225,0,0,0,0,0,0,0,0,0,0,0,0,0,-3.999,-3.9995,-4.0255,-4.0256,-4.0257,-4.0321,-4.0322,-4.0323,-4.0162,-4.0156,-4.015,-4.0144,-4.021,-4.0218,-4.0226,0,0,0,0,0,0,0,0,0,0,0,0,0,-4.0085,-3.9997,-4.0255,-4.0184,-4.0179,-4.0321,-4.0322,-4.0323,-4.0164,-4.0156,-4.0148,-4.0141,-4.0208,-4.0217,-4.0227,-4.044,0,0,-4.0257,-4.0261,0,0,0,0,0,0,0,0,-4.008,-4.0095,-4.0194,-4.0189,-4.0183,-4.0225,-4.0252,-4.0362,-4.0165,-4.0169,-4.0146,-4.0137,-4.0223,-4.0231,-4.026,-4.0443,-4.0446,-4.0258,-4.0264,-4.0268,-4.0271,0,0,0,0,0,0,0,-4.0074,-4.0091,-4.0281,-4.0195,-4.0189,-4.0149,-4.0155,-4.0273,-4.0238,-4.0168,-4.0157,-4.0167,-4.0218,-4.0251,-4.026,-4.0447,-4.0257,-4.0266,-4.0272,-4.0276,-4.0811,-4.0819,0,0,0,0,0,0,-4.0076,-4.0087,-4.0279,-4.0283,-4.0112,-4.016,-4.0166,-4.0219,-4.0236,-4.0232,-4.0173,-4.0159,-4.0238,-4.0249,-4.0262,-4.0514,-4.0268,-4.0277,-4.0282,-4.0803,-4.0813,-4.0822,0,0,0,0,0,0,-4.0071,-4.0095,-4.0276,-4.0182,-4.0202,-4.0173,-4.0234,-4.0225,-4.0257,-4.024,-4.0233,-4.0213,-4.0232,-4.0248,-4.0398,-4.0514,-4.0281,-4.029,-4.0793,-4.0806,-4.0817,-4.102,0,0,0,0,0,0,-4.0064,-4.0094,-4.0174,-4.0185,-4.0208,-4.0411,-4.0241,-4.0232,-4.0275,-4.0257,-4.0275,-4.0271,-4.0228,-4.0384,-4.0408,-4.0524,-4.0298,-4.0782,-4.0798,-4.0813,-4.1003,-4.1038,-4.1068,0,0,0,0,0,-4.0055,-4.0228,-4.0179,-4.0203,-4.0308,-4.0418,-4.0431,-4.0378,-4.0285,-4.0366,-4.0355,-4.0271,-4.0498,-4.0401,-4.0426,-4.0547,-4.0774,-4.0794,-4.0812,-4.0988,-4.1031,-4.1067,0,0,0,0,0,0,-4.023,-4.0228,-4.0174,-4.0355,-4.0389,-4.0391,-4.0491,-4.0425,-4.0485,-4.0465,-4.0396,-4.0402,-4.0565,-4.057,-4.0462,-4.0755,-4.062,-4.0645,-4.0746,-4.0786,-4.0818,-4.0814,-4.0306,0,0,0,0,0,-4.0291,-4.0381,-4.0373,-4.0534,-4.0554,-4.0521,-4.0566,-4.0523,-4.0554,-4.0567,-4.0567,-4.0601,-4.0679,-4.0733,-4.0804,-4.1003,-4.1005,-4.1098,-4.1131,-4.1158,-4.118,-4.1287,-4.1329,-4.0883,-4.0883,-4.0883,0,0,-4.0415,-4.0425,-4.0485,-4.057,-4.059,-4.0686,-4.0533,-4.0639,-4.071,-4.0583,-4.0725,-4.0727,-4.0759,-4.0935,-4.1012,-4.0944,-4.1304,-4.1182,-4.1203,-4.1211,-4.1311,-4.1353,-4.1391,-4.0896,-4.0894,-4.0892,0,0,-4.069,-4.0707,-4.0843,-4.0868,-4.0901,-4.0878,-4.0912,-4.0925,-4.0922,-4.1063,-4.0971,-4.1053,-4.119,-4.1218,-4.125,-4.154,-4.1466,-4.1566,-4.1736,-4.1842,-4.1877,-4.1908,-4.2013,-4.2051,-4.1588,-4.1588,-4.1589,0,-4.084,-4.0981,-4.0922,-4.1036,-4.1077,-4.0968,-4.1106,-4.1132,-4.1188,-4.1219,-4.1142,-4.1314,-4.1328,-4.1509,-4.1581,-4.161,-4.1646,-4.1563,-4.1877,-4.1907,-4.1935,-4.2034,-4.2074,-4.16,-4.1599,-4.1598,-4.1596,0,-4.1165,-4.1264,-4.137,-4.1428,-4.1481,-4.1607,-4.1567,-4.1627,-4.158,-4.1566,-4.1712,-4.1726,-4.18,-4.1839,-4.1793,-4.2016,-4.1973,-4.1888,-4.1751,-4.199,-4.2083,-4.212,-4.1617,-4.1613,-4.161,-4.1607,0,0,-4.1551,-4.1577,-4.1617,-4.1643,-4.1674,-4.1749,-4.1871,-4.1944,-4.1998,-4.204,-4.2142,-4.2262,-4.2184,-4.2221,-4.2177,-4.227,-4.2501,-4.2173,-4.2173,-4.2235,-4.2749,-4.2814,-4.2859,-4.2452,-4.2459,-4.2464,-4.2747,0,-4.1824,-4.2034,-4.1986,-4.2193,-4.2285,-4.2184,-4.2291,-4.2322,-4.2312,-4.2388,-4.2377,-4.2464,-4.2354,-4.2376,-4.2463,-4.2455,-4.2604,-4.2433,-4.2546,-4.2551,-4.2542,-4.2906,-4.2975,-4.324,-4.2782,-4.2788,-4.2793,0,-4.2171,-4.2229,-4.2446,-4.2465,-4.2501,-4.2598,-4.2662,-4.2736,-4.277,-4.2756,-4.28,-4.2739,-4.286,-4.2723,-4.289,-4.2775,-4.2818,-4.2822,-4.2831,-4.2839,-4.2687,-4.2926,-4.3323,-4.3364,-4.2849,-4.2844,-4.284,0,-4.2433,-4.2565,-4.2713,-4.2738,-4.2763,-4.2833,-4.2847,-4.2873,-4.2921,-4.2977,-4.3008,-4.3077,-4.3116,-4.3171,-4.3131,-4.3035,-4.3306,-4.3164,-4.3298,-4.33,-4.336,-4.3357,-4.3771,-4.3387,-4.3387,-4.3386,-4.3385,0,-4.2744,-4.2881,-4.2831,-4.2922,-4.3074,-4.3017,-4.3169,-4.317,-4.3195,-4.3285,-4.3201,-4.3287,-4.3229,-4.331,-4.328,-4.3424,-4.3441,-4.3434,-4.3425,-4.3442,-4.3444,-4.347,-4.3451,-4.3396,-4.3394,-4.3392,-4.339,0,-4.3062,-4.3034,-4.3189,-4.32,-4.3207,-4.3318,-4.3328,-4.3413,-4.3398,-4.3513,-4.3536,-4.3513,-4.3605,-4.3571,-4.3668,-4.3648,-4.3832,-4.3798,-4.3822,-4.3813,-4.395,-4.3938,-4.4396,-4.4454,-4.4032,-4.4036,-4.404,0,-4.3263,-4.3366,-4.339,-4.3445,-4.3465,-4.3554,-4.3603,-4.3553,-4.3607,-4.3655,-4.3735,-4.382,-4.3885,-4.4037,-4.4028,-4.4103,-4.407,-4.4226,-4.4081,-4.4096,-4.4074,-4.4069,-4.408,-4.4255,-4.426,-4.4264,-4.4267,0,-4.3622,-4.3604,-4.3678,-4.375,-4.3812,-4.3865,-4.3911,-4.396,-4.3912,-4.3978,-4.4072,-4.4123,-4.4224,-4.431,-4.4377,-4.439,-4.4323,-4.4313,-4.4348,-4.4368,-4.4378,-4.4376,-4.3902,-4.4303,-4.4299,-4.4296,-4.4294,-4.4293,-4.3888,-4.3977,-4.4008,-4.4095,-4.4125,-4.417,-4.4251,-4.4248,-4.4325,-4.4404,-4.437,-4.4479,-4.4511,-4.4595,-4.4619,-4.4703,-4.4643,-4.4694,-4.4707,-4.472,-4.4739,-4.4365,-4.4715,-4.4714,-4.4713,-4.4712,-4.4712,0,-4.4244,-4.4261,-4.4341,-4.4409,-4.4478,-4.4409,-4.4456,-4.4519,-4.4616,-4.4653,-4.472,-4.4829,-4.4913,-4.4912,-4.499,-4.5058,-4.5029,-4.508,-4.5075,-4.508,-4.4788,-4.475,-4.5103,-4.5103,-4.5103,-4.5103,-4.5103,-4.5103,-4.4438,-4.4585,-4.4571,-4.4732,-4.4747,-4.4854,-4.4888,-4.493,-4.4959,-4.5085,-4.5155,-4.5155,-4.5177,-4.5256,-4.533,-4.5328,-4.5361,-4.5425,-4.5411,-4.5139,-4.51,-4.5063,-4.5027,-4.5432,-4.5433,-4.5696,-4.5699,-4.5701]},{"header":{"parameterUnit":"m.s-1","parameterCategory":1,"la1":30.2991,"la2":30.254,"lo1":-89.0895,"lo2":-89.0444,"dy":0.0017,"dx":0.0017,"nx":28,"ny":28,"refTime":"2023-08-28T21:00:00:Z","depth":0,"parameterNumber":3,"parameterNumberName":"V-component_of_WINDS"},"data":[0,0,0,0,0,0,0,0,0,0,0,0,0,0,0,0,0,0,0,0,0,0,0,0,0,0,0,0,0,0,0,0,0,0,0,0,0,0,0,0,0,0,0,0,0,0,0,0,0,0,0,0,0,0,0,0,0,0,-3.6348,-3.6346,0,-3.6225,-3.6223,-3.6222,-3.6087,-3.6085,-3.6083,-3.6081,-3.5953,-3.5952,-3.595,0,0,0,0,0,0,0,0,0,0,0,0,0,-3.6463,-3.6461,-3.6348,-3.6346,-3.6345,-3.6225,-3.6223,-3.6221,-3.6087,-3.6085,-3.6083,-3.6081,-3.5954,-3.5952,-3.595,0,0,0,0,0,0,0,0,0,0,0,0,0,-3.6384,-3.6461,-3.6348,-3.6263,-3.6255,-3.6225,-3.6223,-3.6221,-3.6088,-3.6085,-3.6082,-3.6079,-3.5955,-3.5952,-3.595,-3.5993,0,0,-3.5943,-3.5941,0,0,0,0,0,0,0,0,-3.6388,-3.638,-3.6277,-3.6269,-3.6259,-3.6168,-3.6217,-3.6145,-3.6089,-3.6151,-3.6081,-3.6078,-3.6027,-3.6019,-3.6002,-3.5987,-3.5982,-3.5942,-3.5941,-3.594,-3.5939,0,0,0,0,0,0,0,-3.6394,-3.6384,-3.6299,-3.6276,-3.6265,-3.623,-3.6216,-3.6202,-3.6107,-3.6146,-3.6135,-3.6123,-3.6022,-3.6004,-3.5998,-3.598,-3.5942,-3.594,-3.5939,-3.5938,-3.5991,-3.5994,0,0,0,0,0,0,-3.6413,-3.639,-3.6303,-3.6295,-3.6318,-3.6231,-3.6214,-3.62,-3.6107,-3.609,-3.6125,-3.6117,-3.601,-3.6001,-3.5993,-3.6036,-3.594,-3.5938,-3.5936,-3.5989,-3.5992,-3.5995,0,0,0,0,0,0,-3.6416,-3.6406,-3.6308,-3.634,-3.6324,-3.6232,-3.6217,-3.6199,-3.6182,-3.6092,-3.6074,-3.6126,-3.6007,-3.5996,-3.5994,-3.603,-3.5937,-3.5934,-3.5985,-3.599,-3.5994,-3.6124,0,0,0,0,0,0,-3.642,-3.6408,-3.6425,-3.6341,-3.6323,-3.6313,-3.6219,-3.6199,-3.6179,-3.6167,-3.6087,-3.6071,-3.6004,-3.5998,-3.5991,-3.6025,-3.5932,-3.5982,-3.5987,-3.5992,-3.6116,-3.6132,-3.6146,0,0,0,0,0,-3.6424,-3.6467,-3.6426,-3.6417,-3.6342,-3.6315,-3.6304,-3.6227,-3.6182,-3.6197,-3.6139,-3.6074,-3.6027,-3.5999,-3.599,-3.6024,-3.5979,-3.5986,-3.5992,-3.611,-3.6129,-3.6146,0,0,0,0,0,0,-3.6557,-3.6454,-3.6409,-3.6425,-3.638,-3.6292,-3.6309,-3.6251,-3.6217,-3.6207,-3.6112,-3.6095,-3.6103,-3.6062,-3.6033,-3.6059,-3.5993,-3.5998,-3.6086,-3.6104,-3.6118,-3.6128,-3.593,0,0,0,0,0,-3.6588,-3.6576,-3.6486,-3.6509,-3.6489,-3.6403,-3.6388,-3.6333,-3.6281,-3.6261,-3.6202,-3.6155,-3.6128,-3.6113,-3.6085,-3.6109,-3.6089,-3.6127,-3.6142,-3.6155,-3.6161,-3.6169,-3.6184,-3.6016,-3.6016,-3.6016,0,0,-3.6653,-3.6595,-3.6593,-3.6534,-3.6493,-3.648,-3.6388,-3.6379,-3.6369,-3.626,-3.6254,-3.6209,-3.6148,-3.6159,-3.6161,-3.6126,-3.6202,-3.6163,-3.6174,-3.6173,-3.6177,-3.6193,-3.6207,-3.6021,-3.602,-3.6019,0,0,-3.6764,-3.672,-3.6734,-3.6693,-3.6631,-3.6573,-3.6577,-3.6497,-3.6463,-3.6456,-3.6373,-3.6358,-3.6316,-3.6276,-3.625,-3.6344,-3.6282,-3.6337,-3.6416,-3.6424,-3.6438,-3.6449,-3.6482,-3.6495,-3.6343,-3.6343,-3.6343,0,-3.6852,-3.6832,-3.6748,-3.6744,-3.672,-3.662,-3.6633,-3.6597,-3.6529,-3.6514,-3.6475,-3.6419,-3.6371,-3.637,-3.6393,-3.6376,-3.6375,-3.6346,-3.6443,-3.6453,-3.6462,-3.6492,-3.6505,-3.635,-3.6349,-3.6348,-3.6348,0,-3.6942,-3.6929,-3.6947,-3.6884,-3.6862,-3.6866,-3.6782,-3.6769,-3.6714,-3.666,-3.6653,-3.6592,-3.6548,-3.6543,-3.649,-3.6534,-3.6514,-3.6461,-3.6393,-3.6487,-3.6513,-3.6524,-3.636,-3.6357,-3.6355,-3.6354,0,0,-3.7136,-3.7025,-3.7033,-3.7002,-3.6925,-3.6913,-3.6911,-3.6869,-3.6859,-3.6814,-3.681,-3.6775,-3.6724,-3.6695,-3.6636,-3.6644,-3.672,-3.6588,-3.6585,-3.6615,-3.6764,-3.6806,-3.682,-3.6678,-3.668,-3.6682,-3.6769,0,-3.7234,-3.7227,-3.715,-3.7165,-3.715,-3.7054,-3.7052,-3.7004,-3.6953,-3.6932,-3.6874,-3.6851,-3.6786,-3.6768,-3.6771,-3.6711,-3.6749,-3.6703,-3.6672,-3.6672,-3.6692,-3.6834,-3.6878,-3.6964,-3.6779,-3.678,-3.6782,0,-3.7348,-3.731,-3.7324,-3.7244,-3.7235,-3.7236,-3.7189,-3.7171,-3.7113,-3.7075,-3.7042,-3.6974,-3.6965,-3.6901,-3.6886,-3.6857,-3.6839,-3.6807,-3.6808,-3.6803,-3.6734,-3.6833,-3.6989,-3.7003,-3.6797,-3.6796,-3.6795,0,-3.7488,-3.744,-3.7441,-3.7418,-3.7326,-3.7328,-3.7289,-3.7228,-3.7207,-3.7166,-3.7151,-3.7109,-3.7087,-3.7055,-3.6977,-3.6938,-3.6971,-3.6901,-3.6938,-3.6941,-3.6951,-3.6952,-3.7108,-3.6939,-3.6939,-3.6939,-3.6939,0,-3.7606,-3.7618,-3.7503,-3.7504,-3.7513,-3.7424,-3.7435,-3.7387,-3.7333,-3.7322,-3.7235,-3.7226,-3.7123,-3.7102,-3.7041,-3.7037,-3.7028,-3.6996,-3.6979,-3.7004,-3.7008,-3.6992,-3.6984,-3.6942,-3.6941,-3.6941,-3.694,0,-3.7765,-3.7688,-3.7683,-3.7596,-3.7574,-3.7585,-3.7509,-3.7505,-3.7447,-3.7434,-3.7425,-3.7335,-3.7305,-3.7224,-3.7173,-3.7131,-3.7145,-3.7115,-3.7166,-3.7155,-3.7198,-3.7196,-3.735,-3.7365,-3.7187,-3.7189,-3.719,0,-3.7845,-3.7852,-3.7765,-3.7752,-3.7717,-3.7696,-3.7674,-3.7585,-3.7565,-3.7498,-3.7502,-3.7465,-3.7431,-3.7387,-3.7316,-3.7276,-3.7244,-3.73,-3.7237,-3.7261,-3.7244,-3.7246,-3.7245,-3.7315,-3.7317,-3.7319,-3.7321,0,-3.7997,-3.7958,-3.793,-3.7888,-3.7864,-3.7827,-3.7784,-3.7777,-3.7677,-3.7659,-3.7627,-3.7601,-3.7548,-3.7512,-3.7461,-3.7418,-3.7353,-3.7341,-3.7347,-3.7373,-3.7403,-3.7387,-3.7204,-3.7338,-3.7336,-3.7335,-3.7334,-3.7333,-3.8119,-3.812,-3.8059,-3.8029,-3.7988,-3.795,-3.7942,-3.7883,-3.7855,-3.7806,-3.7754,-3.7729,-3.7667,-3.7591,-3.7553,-3.753,-3.7496,-3.7506,-3.7508,-3.7513,-3.7524,-3.7406,-3.752,-3.752,-3.7519,-3.7519,-3.7518,0,-3.8266,-3.8221,-3.8195,-3.8138,-3.8115,-3.8055,-3.8004,-3.7988,-3.7967,-3.7916,-3.7884,-3.7846,-3.781,-3.7736,-3.7692,-3.7688,-3.7657,-3.768,-3.768,-3.7671,-3.7557,-3.7556,-3.7706,-3.7706,-3.7706,-3.7706,-3.7706,-3.7706,-3.834,-3.8338,-3.8292,-3.8268,-3.8222,-3.8197,-3.8173,-3.8136,-3.8095,-3.8058,-3.8028,-3.7979,-3.7918,-3.7869,-3.7833,-3.7811,-3.7799,-3.7832,-3.7802,-3.7697,-3.7679,-3.7662,-3.7661,-3.783,-3.7831,-3.7917,-3.7918,-3.7919]}]]